UAE525 KLAX-YSSY

Flight info

Callsign UAE525
Flight time N/A
Altitude 32000
Route SUMMR2 FICKY DCT 2955N12420W 2755N12800W 2539N13321W 2519N13359W 2324N13723W 2105N14045W 1820N14422W/N0496F340 1459N14848W 1224N15208W 0836N15638W 0447N16041W 0334N16159W 0032N16525W/N0490F360 0257S16915W 0500S17145W 0845S17619W 1211S17922E 1342S17729E/N0483F380 1718S17309E 2009S16953E 2326S16631E 2554S16417E 2716S16300E 3002S16015E DCT GOOMA H258 RIKNI N774 MARLN
Aircraft B77L/H-SDE1E2E3FGHIJ2J3J4J5M1RWXY/LB1D1

Departure

Time 2026-04-24 01:21
Airport Los Angeles International Airport (KLAX)

Arrival

Time N/A
Airport Sydney Kingsford Smith International Airport (YSSY)
Time Latitude Longitude Altitude Speed Heading
2026-04-24 00:54 33.94099 -118.41090 130 ft 0 kts 83°
2026-04-24 01:10 33.94098 -118.41104 124 ft 3 kts 83°
2026-04-24 01:10 33.94095 -118.41129 124 ft 3 kts 83°
2026-04-24 01:10 33.94092 -118.41152 124 ft 3 kts 71°
2026-04-24 01:10 33.94084 -118.41173 124 ft 3 kts 47°
2026-04-24 01:11 33.94069 -118.41187 124 ft 3 kts 15°
2026-04-24 01:11 33.94051 -118.41189 124 ft 2 kts 354°
2026-04-24 01:11 33.94048 -118.41189 124 ft 0 kts 353°
2026-04-24 01:14 33.94063 -118.41191 124 ft 5 kts 353°
2026-04-24 01:14 33.94149 -118.41202 127 ft 11 kts 354°
2026-04-24 01:14 33.94226 -118.41215 127 ft 11 kts 352°
2026-04-24 01:15 33.94305 -118.41225 127 ft 13 kts 354°
2026-04-24 01:15 33.94398 -118.41238 127 ft 14 kts 352°
2026-04-24 01:15 33.94461 -118.41249 127 ft 14 kts 351°
2026-04-24 01:15 33.94556 -118.41265 127 ft 14 kts 353°
2026-04-24 01:16 33.94651 -118.41279 127 ft 14 kts 353°
2026-04-24 01:16 33.94746 -118.41293 127 ft 13 kts 353°
2026-04-24 01:16 33.94800 -118.41224 126 ft 13 kts 82°
2026-04-24 01:16 33.94812 -118.41114 129 ft 13 kts 83°
2026-04-24 01:17 33.94828 -118.40965 127 ft 15 kts 82°
2026-04-24 01:17 33.94837 -118.40878 130 ft 16 kts 83°
2026-04-24 01:17 33.94850 -118.40749 128 ft 14 kts 84°
2026-04-24 01:17 33.94860 -118.40647 130 ft 12 kts 83°
2026-04-24 01:18 33.94871 -118.40544 128 ft 12 kts 82°
2026-04-24 01:18 33.94882 -118.40441 127 ft 12 kts 83°
2026-04-24 01:18 33.94892 -118.40337 128 ft 12 kts 84°
2026-04-24 01:18 33.94904 -118.40224 126 ft 14 kts 82°
2026-04-24 01:19 33.94916 -118.40104 126 ft 14 kts 83°
2026-04-24 01:19 33.94929 -118.39984 130 ft 14 kts 79°
2026-04-24 01:19 33.94999 -118.39915 127 ft 15 kts 358°
2026-04-24 01:19 33.95036 -118.40009 126 ft 17 kts 264°
2026-04-24 01:20 33.95006 -118.40302 128 ft 66 kts 263°
2026-04-24 01:20 33.94921 -118.41127 130 ft 131 kts 263°
2026-04-24 01:20 33.94789 -118.42428 129 ft 183 kts 263°
2026-04-24 01:20 33.94616 -118.43987 553 ft 188 kts 262°
2026-04-24 01:21 33.94427 -118.45504 1211 ft 185 kts 264°
2026-04-24 01:21 33.94320 -118.47076 1684 ft 192 kts 269°
2026-04-24 01:21 33.94274 -118.48760 1906 ft 211 kts 269°
2026-04-24 01:21 33.94228 -118.50622 2109 ft 232 kts 269°
2026-04-24 01:22 33.94119 -118.52618 2530 ft 241 kts 265°
2026-04-24 01:22 33.93949 -118.54663 3043 ft 253 kts 264°
2026-04-24 01:22 33.93770 -118.56824 3564 ft 264 kts 264°
2026-04-24 01:22 33.93591 -118.59042 4273 ft 268 kts 265°
2026-04-24 01:23 33.93413 -118.61271 4933 ft 274 kts 265°
2026-04-24 01:23 33.93231 -118.63575 5598 ft 278 kts 265°
2026-04-24 01:23 33.93047 -118.65902 6307 ft 281 kts 265°
2026-04-24 01:23 33.92855 -118.68236 7082 ft 277 kts 266°
2026-04-24 01:24 33.92679 -118.70518 7895 ft 274 kts 265°
2026-04-24 01:24 33.92497 -118.72819 8512 ft 278 kts 265°
2026-04-24 01:24 33.92323 -118.75136 9274 ft 276 kts 266°
2026-04-24 01:24 33.92148 -118.77439 9962 ft 278 kts 265°
2026-04-24 01:25 33.91967 -118.79784 10430 ft 288 kts 265°
2026-04-24 01:25 33.91773 -118.82276 10575 ft 309 kts 265°
2026-04-24 01:25 33.91641 -118.84947 10753 ft 330 kts 271°
2026-04-24 01:25 33.91727 -118.87753 10938 ft 349 kts 274°
2026-04-24 01:26 33.91874 -118.90716 11443 ft 359 kts 274°
2026-04-24 01:26 33.92000 -118.93736 12104 ft 363 kts 273°
2026-04-24 01:26 33.92099 -118.96780 12892 ft 364 kts 272°
2026-04-24 01:26 33.92183 -118.99815 13726 ft 361 kts 271°
2026-04-24 01:27 33.91877 -119.02828 14227 ft 369 kts 253°
2026-04-24 01:27 33.90841 -119.05662 14739 ft 372 kts 247°
2026-04-24 01:27 33.89757 -119.08510 15345 ft 375 kts 248°
2026-04-24 01:27 33.88701 -119.11386 16064 ft 376 kts 249°
2026-04-24 01:28 33.87667 -119.14231 16746 ft 377 kts 249°
2026-04-24 01:28 33.86614 -119.17131 17390 ft 379 kts 249°
2026-04-24 01:28 33.85552 -119.20052 18013 ft 383 kts 249°
2026-04-24 01:28 33.84480 -119.22994 18586 ft 385 kts 248°
2026-04-24 01:29 33.83401 -119.25954 19115 ft 388 kts 248°
2026-04-24 01:29 33.82311 -119.28937 19607 ft 392 kts 248°
2026-04-24 01:29 33.81210 -119.31949 20102 ft 395 kts 248°
2026-04-24 01:29 33.79879 -119.34833 20480 ft 402 kts 235°
2026-04-24 01:30 33.77851 -119.37191 20887 ft 409 kts 221°
2026-04-24 01:30 33.75558 -119.39257 21350 ft 413 kts 221°
2026-04-24 01:30 33.73295 -119.41335 21805 ft 416 kts 221°
2026-04-24 01:30 33.70999 -119.43464 22334 ft 418 kts 221°
2026-04-24 01:31 33.68701 -119.45606 22857 ft 420 kts 221°
2026-04-24 01:31 33.66384 -119.47771 23327 ft 423 kts 221°
2026-04-24 01:31 33.64049 -119.49956 23774 ft 427 kts 221°
2026-04-24 01:31 33.61706 -119.52148 24187 ft 429 kts 221°
2026-04-24 01:32 33.59347 -119.54353 24619 ft 431 kts 221°
2026-04-24 01:32 33.56977 -119.56567 25031 ft 433 kts 221°
2026-04-24 01:32 33.54594 -119.58792 25456 ft 435 kts 221°
2026-04-24 01:32 33.52198 -119.61028 25864 ft 437 kts 221°
2026-04-24 01:33 33.49789 -119.63274 26271 ft 440 kts 222°
2026-04-24 01:33 33.47368 -119.65530 26663 ft 442 kts 222°
2026-04-24 01:33 33.44934 -119.67797 27054 ft 444 kts 222°
2026-04-24 01:33 33.42525 -119.70038 27412 ft 447 kts 222°
2026-04-24 01:34 33.40065 -119.72325 27787 ft 449 kts 222°
2026-04-24 01:34 33.37592 -119.74622 28161 ft 451 kts 222°
2026-04-24 01:34 33.35107 -119.76929 28524 ft 453 kts 222°
2026-04-24 01:34 33.32611 -119.79244 28871 ft 455 kts 222°
2026-04-24 01:35 33.30101 -119.81570 29204 ft 458 kts 222°
2026-04-24 01:35 33.27579 -119.83906 29527 ft 460 kts 222°
2026-04-24 01:35 33.25046 -119.86251 29829 ft 462 kts 222°
2026-04-24 01:35 33.22494 -119.88611 29949 ft 466 kts 222°
2026-04-24 01:36 33.19957 -119.90957 30003 ft 468 kts 222°
2026-04-24 01:36 33.14829 -119.95686 30014 ft 463 kts 222°
2026-04-24 01:37 33.09746 -120.00367 30019 ft 461 kts 222°
2026-04-24 01:37 33.04684 -120.05027 30024 ft 460 kts 222°
2026-04-24 01:38 32.99631 -120.09670 30026 ft 454 kts 222°
2026-04-24 01:38 32.94638 -120.14251 30469 ft 452 kts 222°
2026-04-24 01:38 32.92188 -120.16496 30871 ft 450 kts 222°
2026-04-24 01:39 32.89706 -120.18770 31211 ft 450 kts 222°
2026-04-24 01:39 32.87219 -120.21048 31426 ft 452 kts 223°
2026-04-24 01:39 32.84720 -120.23335 31643 ft 454 kts 223°
2026-04-24 01:39 32.82215 -120.25626 31921 ft 454 kts 223°
2026-04-24 01:40 32.79704 -120.27919 31954 ft 456 kts 223°
2026-04-24 01:40 32.74717 -120.32464 32033 ft 448 kts 223°
2026-04-24 01:41 32.69784 -120.36958 32050 ft 447 kts 223°
2026-04-24 01:41 32.64879 -120.41425 32058 ft 449 kts 223°
2026-04-24 01:42 32.59907 -120.45943 32056 ft 450 kts 223°
2026-04-24 01:42 32.54935 -120.50452 32056 ft 451 kts 223°
2026-04-24 01:43 32.49959 -120.54960 32042 ft 450 kts 223°
2026-04-24 01:43 32.45002 -120.59446 32053 ft 447 kts 223°
2026-04-24 01:44 32.40069 -120.63905 32059 ft 445 kts 223°
2026-04-24 01:44 32.35187 -120.68312 32062 ft 443 kts 223°
2026-04-24 01:45 32.30291 -120.72727 32065 ft 443 kts 223°
2026-04-24 01:45 32.25393 -120.77138 32071 ft 443 kts 223°
2026-04-24 01:46 32.20492 -120.81544 32072 ft 443 kts 223°
2026-04-24 01:46 32.15588 -120.85947 32066 ft 442 kts 224°
2026-04-24 01:47 32.10719 -120.90312 32069 ft 442 kts 224°
2026-04-24 01:47 32.05822 -120.94696 32075 ft 442 kts 224°
2026-04-24 01:48 32.00918 -120.99080 32075 ft 442 kts 224°
2026-04-24 01:48 31.96014 -121.03459 32075 ft 442 kts 224°
2026-04-24 01:49 31.91108 -121.07833 32079 ft 442 kts 224°
2026-04-24 01:49 31.86234 -121.12173 32084 ft 442 kts 224°
2026-04-24 01:50 31.81329 -121.16535 32085 ft 442 kts 224°